sat.trackr.live / text

‹ back to catalog

STARLINK-4281

NORAD 53017 · 2022-076AH

PAYLOAD ACTIVE UNKNOWN

§ Identity

Operator
Country
US
Launch date
2022-07-07
Launch site
AFETR
Launch vehicle
Mass (kg)
RCS (m²)

Purposes: comms

External: N2YO · Heavens-Above · Gunter

§ Orbital elements

Epoch: 2026-09-19T14:15:34.598880Z

Period
94.33 min
Inclination
53.1859°
Eccentricity
0.0001067
Mean motion
15.26524255 rev/d
Perigee alt
485.5 km
Apogee alt
486.9 km
Semi-major
6,864.3 km
B*
-6.3965e-6
RAAN
252.8719°
Arg perigee
89.7022°
Mean anomaly
270.4100°
Rev number
23,284

§ Raw data

STARLINK-42811 53017U 22076AH  26262.59415045 -.00000514  00000+0 -63965-5 0  99992 53017  53.1859 252.8719 0001067  89.7022 270.4100 15.26524255232845

JSON: /api/v1/satellites/53017 · /tle

For live sub-satellite position, see the globe view (requires WebGL).

§ Visibility from observer

Set your observer location to see the next 7 days of passes ≥ 10°. The values pass through the URL so the page stays shareable.

No JS? Fill the form by hand. The geolocation button needs JavaScript.